カタログに戻る

COSMOS 1823 DEB

運用中LEO
NORAD 39815·DEBRIS·🇷🇺 Russia

打ち上げ Feb 20, 1987 から Plesetsk Cosmodrome

Loading…

次のパス (今後24時間)

TLE

経年Source: Space-Track

元期: Sep 12, 2026, 10:05 UTC

1 39815U 87020EP  26255.42044530  .00000020  00000-0  27043-3 0  9996
2 39815  73.5996 277.7380 0025176 112.0239 248.3484 12.42115193715881

AllMySatでCOSMOS 1823 DEBをリアルタイム追跡

Download on the App Store